This demonstration page uses our WeatherBlox Daily Observations layout. Learn more.

Left ArrowRight Arrow

Hourly Observations for January 6, 2016

Temp ( °F °C ) Dew Point ( °F °C ) Humidity (%) Winds ( mph kmh ) Pressure ( in mb ) Visibility ( mi km ) Precip ( " mm )
12:53 am 00:53 Clear 34 1.1 11 -11.7 38 38 E 7 11 30.50 1033 10 16 0.00 0.00
1:53 am 01:53 Clear 31 -0.6 13 -10.6 47 47 ENE 6 9 30.48 1032 10 16 0.00 0.00
2:53 am 02:53 Clear 32 0 12 -11.1 43 43 E 5 7 30.48 1032 10 16 0.00 0.00
3:53 am 03:53 Clear 31 -0.6 12 -11.1 45 45 ENE 5 7 30.48 1032 10 16 0.00 0.00
4:53 am 04:53 Clear 29 -1.7 14 -10 54 54 ENE 6 9 30.48 1032 10 16 0.00 0.00
5:53 am 05:53 Clear 27 -2.8 13 -10.6 55 55 Calm 30.48 1032 10 16 0.00 0.00
6:53 am 06:53 Clear 27 -2.8 13 -10.6 55 55 ENE 5 7 30.49 1032 10 16 0.00 0.00
7:53 am 07:53 Sunny 27 -2.8 12 -11.1 53 53 NE 6 9 30.49 1032 10 16 0.00 0.00
8:53 am 08:53 Sunny 30 -1.1 9 -12.8 41 41 E 12 19 30.49 1033 10 16 0.00 0.00
9:53 am 09:53 Sunny 34 1.1 8 -13.3 34 34 ENE 13 20 30.49 1033 10 16 0.00 0.00
10:53 am 10:53 Sunny 37 2.8 7 -13.9 28 28 ENE 12 19 30.49 1032 10 16 0.00 0.00
11:53 am 11:53 Sunny 40 4.4 7 -13.9 25 25 E 6 9 30.45 1031 10 16 0.00 0.00
12:53 pm 12:53 Sunny 42 5.6 10 -12.2 27 27 VRB 5 7 30.40 1029 10 16 0.00 0.00
1:53 pm 13:53 Sunny 45 7.2 12 -11.1 26 26 ENE 7 11 30.35 1028 10 16 0.00 0.00
2:53 pm 14:53 Sunny 47 8.3 15 -9.4 28 28 E 8 13 30.32 1027 10 16 0.00 0.00
3:53 pm 15:53 Sunny 46 7.8 15 -9.4 29 29 ESE 8 13 30.32 1027 10 16 0.00 0.00
4:53 pm 16:53 Sunny 46 7.8 16 -8.9 30 30 ENE 9 15 30.31 1027 10 16 0.00 0.00
5:53 pm 17:53 Clear 44 6.7 16 -8.9 32 32 E 7 11 30.32 1027 10 16 0.00 0.00
6:53 pm 18:53 Mostly Clear 42 5.6 16 -8.9 35 35 E 5 7 30.33 1027 10 16 0.00 0.00
7:53 pm 19:53 Clear 39 3.9 18 -7.8 43 43 ENE 3 6 30.32 1027 10 16 0.00 0.00
8:53 pm 20:53 Cloudy 39 3.9 21 -6.1 48 48 NNE 5 7 30.32 1027 10 16 0.00 0.00
9:53 pm 21:53 Cloudy 41 5 19 -7.2 41 41 NE 6 9 30.32 1027 10 16 0.00 0.00
10:43 pm 22:43 Cloudy 42 5.6 20 -6.7 41 41 NE 6 9 30.30 1026 10 16 0.00 0.00
10:53 pm 22:53 Cloudy 42 5.6 20 -6.7 41 41 ENE 5 7 30.32 1027 10 16 0.00 0.00
11:34 pm 23:34 Cloudy 43 6 21 -6 42 42 NE 6 9 30.30 1026 10 16 0.00 0.00
11:53 pm 23:53 Cloudy 42 5.6 21 -6.1 43 43 ENE 7 11 30.30 1026 10 16 0.00 0.00

Powered by AerisWeather